Location: Thompson
(55.7500°N, 97.8670°W)
Time: 01:38:19
(UTC-05:00)

Amateur Radio Satellites - All Passes

Search period start: 21 August 2017 01:08
Search period end: 22 August 2017 01:08
Location: Thompson, 55.7500°N, 97.8670°W

Satellite Date Start Highest point End Downlink Frequencies (MHz)
Time Altitude Azimuth
FO-29 21 Aug 01:09:59 01:14:40 25° 311° (NW) 01:18:59 435.910
DUCHIFAT 1 21 Aug 01:17:11 01:21:05 37° 97° (E) 01:24:59 145.980
BUGSAT 1 21 Aug 01:18:41 01:20:45 14° 87° (E) 01:22:49 437.445
ESTCUBE 1 21 Aug 01:19:33 01:22:52 20° 271° (W) 01:26:12 437.505/2401.250
VELOX 1 21 Aug 01:24:44 01:29:07 54° 259° (W) 01:33:31 145.980
DX 1 21 Aug 01:26:23 01:30:43 62° 69° (ENE) 01:35:05 434.975-435.025
UNISAT 6 21 Aug 01:31:53 01:34:42 17° 306° (NW) 01:37:31 437.425
SPROUT 21 Aug 01:33:15 01:37:14 38° 263° (W) 01:41:15 437.525
BEESAT 21 Aug 01:35:25 01:37:57 14° 47° (NE) 01:40:29 436.000
PRISM 21 Aug 01:37:29 01:40:26 19° 305° (NW) 01:43:22 437.425
PCSat 21 Aug 01:44:45 01:50:04 52° 323° (NW) 01:55:25 145.827
SO-50 21 Aug 01:56:45 02:01:15 66° 324° (NW) 02:05:46 436.795
NANOSAT C BR1 21 Aug 02:02:06 02:06:18 81° 289° (WNW) 02:10:30 145.865
AIST 2D 21 Aug 02:04:29 02:07:32 27° 296° (WNW) 02:10:35 435.315
POLYITAN 1 21 Aug 02:06:48 02:11:00 68° 289° (WNW) 02:15:11 437.675
ITUPSAT 1 21 Aug 02:08:16 02:11:56 23° 54° (NE) 02:15:37 437.325
TIGRISAT 21 Aug 02:08:27 02:09:25 11° 313° (NW) 02:10:24 435.000
Gurwin Techsat 1B 21 Aug 02:10:31 02:14:00 17° 86° (E) 02:17:29 435.225
QB50P2 21 Aug 02:22:04 02:26:08 47° 293° (WNW) 02:30:10 145.880/145.840
EO-79 21 Aug 02:22:45 02:26:50 49° 292° (WNW) 02:30:53 145.935-145.965
M-CUBED/EXP-1 PRIME 21 Aug 02:31:33 02:35:52 43° 302° (WNW) 02:39:56 437.505
Oscar 19 21 Aug 02:35:54 02:40:42 35° 95° (E) 02:45:28 437.125/150
50 SAT 21 Aug 02:36:20 02:38:58 20° 267° (W) 02:41:37 437.505
UKube-1 21 Aug 02:41:05 02:45:13 43° 261° (W) 02:49:23 .
BUGSAT 1 21 Aug 02:52:41 02:56:44 88° 287° (WNW) 03:00:45 437.445
DUCHIFAT 1 21 Aug 02:52:58 02:56:45 34° 297° (WNW) 03:00:31 145.980
MOZHAYETS 4 21 Aug 02:54:06 02:58:17 37° 63° (ENE) 03:02:31
DX 1 21 Aug 03:03:53 03:07:17 22° 269° (W) 03:10:43 434.975-435.025
YUBILEINY 21 Aug 03:04:04 03:12:40 57° 68° (ENE) 03:21:11 435.215
KKS-1 21 Aug 03:08:55 03:09:44 10° 44° (NE) 03:10:34 437.445
BEESAT 21 Aug 03:10:12 03:14:53 60° 67° (ENE) 03:19:35 436.000
CUBESAT XI-V 21 Aug 03:15:18 03:18:34 19° 53° (NE) 03:21:53 437.345
NO-84 21 Aug 03:29:21 03:31:48 26° 151° (SSE) 03:34:16 435.350 FM
PCSat 21 Aug 03:29:59 03:34:36 27° 348° (NNW) 03:39:13 145.827
SO-50 21 Aug 03:38:25 03:42:24 30° 347° (NNW) 03:46:25 436.795
NANOSAT C BR1 21 Aug 03:38:57 03:41:24 15° 308° (NW) 03:43:52 145.865
POLYITAN 1 21 Aug 03:44:00 03:46:04 14° 310° (NW) 03:48:09 437.675
ITUPSAT 1 21 Aug 03:44:33 03:49:19 78° 254° (WSW) 03:54:06 437.325
AO-7 21 Aug 03:47:01 03:53:24 23° 86° (E) 03:59:43 .
STARS 21 Aug 03:47:06 03:47:59 11° 44° (NE) 03:48:51 437.465
Gurwin Techsat 1B 21 Aug 03:49:26 03:54:48 83° 106° (ESE) 04:00:08 435.225
ITAMSAT 1 21 Aug 03:56:21 03:59:45 17° 86° (E) 04:03:09 435.822/435.867
QB50P2 21 Aug 04:00:37 04:00:59 10° 314° (NW) 04:01:21 145.880/145.840
EO-79 21 Aug 04:00:48 04:01:41 11° 313° (NW) 04:02:34 145.935-145.965
M-CUBED/EXP-1 PRIME 21 Aug 04:07:23 04:09:14 12° 324° (NW) 04:11:04 437.505
Oscar 19 21 Aug 04:15:11 04:20:13 49° 296° (WNW) 04:25:12 437.125/150
BUGSAT 1 21 Aug 04:29:08 04:31:32 16° 307° (NW) 04:33:57 437.445
MOZHAYETS 4 21 Aug 04:31:12 04:35:28 38° 263° (W) 04:39:46
KKS-1 21 Aug 04:41:02 04:45:17 44° 65° (ENE) 04:49:32 437.445
BEESAT 21 Aug 04:49:06 04:53:01 25° 268° (W) 04:56:58 436.000
CUBESAT XI-V 21 Aug 04:50:40 04:55:21 89° 73° (ENE) 05:00:06 437.345
YUBILEINY 21 Aug 05:01:14 05:09:26 48° 273° (W) 05:17:35 435.215
NO-84 21 Aug 05:06:03 05:08:53 70° 171° (S) 05:11:47 435.350 FM
PCSat 21 Aug 05:14:54 05:19:34 28° 14° (NNE) 05:24:13 145.827
STARS 21 Aug 05:19:08 05:23:20 45° 65° (ENE) 05:27:32 437.465
SO-50 21 Aug 05:20:00 05:23:58 29° 11° (NNE) 05:27:59 436.795
ITUPSAT 1 21 Aug 05:25:26 05:27:59 14° 275° (W) 05:30:31 437.325
Gurwin Techsat 1B 21 Aug 05:30:02 05:34:14 24° 307° (NW) 05:38:25 435.225
STRAND 1 21 Aug 05:31:00 05:33:10 13° 42° (NE) 05:35:19 437.568
ITAMSAT 1 21 Aug 05:34:48 05:40:02 85° 108° (ESE) 05:45:13 435.822/435.867
AO-7 21 Aug 05:39:11 05:47:35 78° 109° (ESE) 05:55:55 .
AO-85 21 Aug 05:49:09 05:50:47 12° 113° (ESE) 05:52:25 145.980
BEESAT 3 21 Aug 05:51:54 05:54:51 20° 118° (ESE) 05:57:50 437.485
Oscar 19 21 Aug 05:55:59 05:58:27 14° 317° (NW) 06:00:55 437.125/150
BEESAT 2 21 Aug 06:08:02 06:09:22 11° 112° (ESE) 06:10:41 435.950
KKS-1 21 Aug 06:17:58 06:21:59 31° 265° (W) 06:26:00 437.445
FO-29 21 Aug 06:21:40 06:21:59 10° 29° (NNE) 06:22:17 435.910
XW-2F 21 Aug 06:30:00 06:31:31 12° 85° (E) 06:33:02 145.980 - 146.000
CUBESAT XI-V 21 Aug 06:30:26 06:33:25 17° 274° (W) 06:36:26 437.345
DOVE 4 21 Aug 06:42:02 06:46:32 43° 96° (E) 06:50:44 437.250
NO-84 21 Aug 06:43:19 06:46:10 65° 192° (SSW) 06:49:10 435.350 FM
KAITUO 1B 21 Aug 06:54:00 06:56:30 17° 89° (E) 06:58:59 145.475/437.950
STARS 21 Aug 06:55:58 06:59:51 30° 265° (W) 07:03:44 437.465
PCSat 21 Aug 06:58:39 07:04:02 56° 39° (NE) 07:09:22 145.827
YUBILEINY 21 Aug 07:00:31 07:03:55 13° 298° (WNW) 07:07:20 435.215
SO-50 21 Aug 07:00:40 07:05:11 61° 35° (NE) 07:09:43 436.795
HO-68 21 Aug 07:00:43 07:04:02 13° 78° (ENE) 07:07:21 435.675
STRAND 1 21 Aug 07:06:22 07:11:14 47° 64° (ENE) 07:16:08 437.568
ITAMSAT 1 21 Aug 07:14:58 07:18:58 23° 308° (NW) 07:22:58 435.822/435.867
LilacSat-2 21 Aug 07:16:35 07:20:10 34° 96° (E) 07:23:44 437.200
XW-2D 21 Aug 07:20:26 07:24:02 36° 97° (E) 07:27:37 145.860 - 145.880
NUDT-PHONESAT 21 Aug 07:25:46 07:29:08 30° 95° (E) 07:32:30 437.300
AO-85 21 Aug 07:26:32 07:30:25 69° 133° (SE) 07:34:23 145.980
BEESAT 3 21 Aug 07:27:55 07:31:59 84° 319° (NW) 07:36:04 437.485
XW-2B 21 Aug 07:31:26 07:35:09 44° 99° (E) 07:38:51 145.730 - 145.750
AO-7 21 Aug 07:32:20 07:39:53 40° 313° (NW) 07:47:24 .
BEESAT 2 21 Aug 07:42:20 07:46:18 60° 132° (SE) 07:50:20 435.950
SEEDS 21 Aug 07:44:03 07:45:33 12° 83° (E) 07:47:02 437.485
CUTE-I 21 Aug 07:45:26 07:50:38 50° 100° (E) 07:55:47 437.470
XW-2C 21 Aug 07:50:30 07:54:20 70° 103° (ESE) 07:58:11 145.795 - 145.815
FO-29 21 Aug 07:59:20 08:05:10 28° 52° (NE) 08:10:29 435.910
XW-2F 21 Aug 08:02:25 08:06:16 86° 102° (ESE) 08:10:07 145.980 - 146.000
DOVE 4 21 Aug 08:19:55 08:24:10 34° 298° (WNW) 08:28:10 437.250
NO-84 21 Aug 08:20:48 08:23:15 24° 211° (SSW) 08:25:49 435.350 FM
XW-2A 21 Aug 08:23:18 08:25:39 17° 91° (E) 08:27:59 145.665 - 145.685
TIGRISAT 21 Aug 08:25:34 08:26:59 11° 48° (NE) 08:28:25 435.000
KAITUO 1B 21 Aug 08:27:08 08:30:55 66° 287° (WNW) 08:34:42 145.475/437.950
AAUSAT CUBESAT 2 21 Aug 08:27:53 08:30:18 15° 86° (E) 08:32:41 437.432
CUTE 1.7 + AOD 2 21 Aug 08:30:38 08:34:44 40° 97° (E) 08:38:48 437.475
UWE-3 21 Aug 08:37:36 08:40:37 19° 89° (E) 08:43:40 435.000/436.395/437.385
SO-50 21 Aug 08:41:22 08:45:30 35° 236° (SW) 08:49:39 436.795
PCSat 21 Aug 08:42:16 08:47:22 42° 241° (WSW) 08:52:27 145.827
CUBEBUG 2 21 Aug 08:45:09 08:48:55 32° 95° (E) 08:52:45 437.445
STRAND 1 21 Aug 08:45:53 08:50:35 36° 264° (W) 08:55:18 437.568
HO-68 21 Aug 08:46:29 08:53:31 54° 101° (E) 09:00:31 435.675
Oscar 11 21 Aug 08:48:04 08:48:50 10° 82° (E) 08:49:36 .
LilacSat-2 21 Aug 08:50:57 08:54:25 32° 296° (WNW) 08:57:52 437.200
XW-2D 21 Aug 08:54:47 08:58:10 30° 296° (WNW) 09:01:32 145.860 - 145.880
NUDT-PHONESAT 21 Aug 08:59:39 09:03:03 33° 295° (WNW) 09:06:27 437.300
XW-2B 21 Aug 09:05:59 09:09:10 25° 298° (WNW) 09:12:22 145.730 - 145.750
BEESAT 3 21 Aug 09:06:28 09:10:03 29° 341° (NNW) 09:13:39 437.485
AO-85 21 Aug 09:07:30 09:11:06 33° 337° (NNW) 09:14:49 145.980
ZACube-1 21 Aug 09:16:14 09:19:46 25° 92° (E) 09:23:21 437.345
SEEDS 21 Aug 09:17:45 09:22:02 72° 103° (ESE) 09:26:17 437.485
BEESAT 2 21 Aug 09:20:29 09:24:17 37° 333° (NNW) 09:28:07 435.950
PRISM 21 Aug 09:23:16 09:26:39 24° 58° (ENE) 09:30:02 437.425
UNISAT 6 21 Aug 09:24:10 09:27:57 31° 62° (ENE) 09:31:44 437.425
AO-7 21 Aug 09:25:13 09:30:37 20° 339° (NNW) 09:36:02 .
XW-2C 21 Aug 09:25:28 09:28:08 18° 303° (WNW) 09:30:47 145.795 - 145.815
CUTE-I 21 Aug 09:25:44 09:30:36 37° 301° (WNW) 09:35:26 437.470
AO-73 21 Aug 09:37:01 09:40:55 34° 96° (E) 09:44:51 145.935
XW-2F 21 Aug 09:37:36 09:39:54 15° 304° (NW) 09:42:10 145.980 - 146.000
FO-29 21 Aug 09:42:13 09:49:37 87° 75° (ENE) 09:56:14 435.910
XW-2A 21 Aug 09:55:21 09:58:40 50° 290° (WNW) 10:01:58 145.665 - 145.685
TIGRISAT 21 Aug 09:58:39 10:02:50 54° 69° (ENE) 10:07:01 435.000
AAUSAT CUBESAT 2 21 Aug 10:02:08 10:06:22 86° 288° (WNW) 10:10:33 437.432
KAITUO 1B 21 Aug 10:02:54 10:04:13 12° 308° (NW) 10:05:32 145.475/437.950
CUTE 1.7 + AOD 2 21 Aug 10:06:39 10:10:30 32° 297° (WNW) 10:14:20 437.475
UWE-3 21 Aug 10:13:20 10:17:32 68° 288° (WNW) 10:21:47 435.000/436.395/437.385
QB50P2 21 Aug 10:13:54 10:15:00 11° 47° (NE) 10:16:07 145.880/145.840
EO-79 21 Aug 10:14:56 10:15:36 10° 47° (NE) 10:16:16 145.935-145.965
RS-15 21 Aug 10:15:18 10:22:42 19° 93° (E) 10:30:05 29.354- 29.394
M-CUBED/EXP-1 PRIME 21 Aug 10:15:32 10:19:28 28° 51° (NE) 10:23:27 437.505
Oscar 11 21 Aug 10:21:31 10:25:53 64° 102° (ESE) 10:30:12 .
CUBEBUG 2 21 Aug 10:21:45 10:25:39 38° 295° (WNW) 10:29:35 437.445
Tancredo 1 21 Aug 10:30:07 10:31:10 11° 147° (SSE) 10:32:13 437.200
HO-68 21 Aug 10:34:28 10:41:15 47° 303° (WNW) 10:48:01 435.675
DUCHIFAT 1 21 Aug 10:42:42 10:44:53 14° 51° (NE) 10:47:03 145.980
BEESAT 3 21 Aug 10:45:24 10:48:40 23° 4° (N) 10:51:56 437.485
Max Valier Satellite 21 Aug 10:45:37 10:48:45 25° 94° (E) 10:51:52 145.860
AO-85 21 Aug 10:49:16 10:52:30 23° 1° (N) 10:55:51 145.980
O/OREOS (USA 219) 21 Aug 10:49:37 10:53:59 55° 115° (ESE) 10:58:24 437.305
ZACube-1 21 Aug 10:52:12 10:56:19 51° 292° (WNW) 11:00:31 437.345
SEEDS 21 Aug 10:54:09 10:57:18 20° 303° (WNW) 11:00:26 437.485
PRISM 21 Aug 10:57:33 11:01:39 56° 258° (WSW) 11:05:47 437.425
BEESAT 2 21 Aug 10:59:41 11:02:59 23° 357° (N) 11:06:16 435.950
UNISAT 6 21 Aug 11:00:30 11:04:36 42° 262° (W) 11:08:41 437.425
DELFI C3 21 Aug 11:03:55 11:07:48 48° 99° (E) 11:11:39 145.870
CUTE-I 21 Aug 11:07:57 11:09:18 11° 323° (NW) 11:10:40 437.470
AIST 2D 21 Aug 11:12:15 11:15:32 40° 68° (ENE) 11:18:53 435.315
AO-73 21 Aug 11:13:17 11:17:12 38° 295° (WNW) 11:21:12 145.935
AO-7 21 Aug 11:15:54 11:20:28 16° 6° (N) 11:25:01 .
NANOSAT C BR1 21 Aug 11:26:02 11:29:43 31° 62° (ENE) 11:33:24 145.865
FO-29 21 Aug 11:29:23 11:35:22 26° 271° (W) 11:40:53 435.910
POLYITAN 1 21 Aug 11:30:57 11:34:48 36° 64° (ENE) 11:38:39 437.675
LO-87 21 Aug 11:35:01 11:36:20 12° 86° (E) 11:37:38 145.935 - 145.965
TIGRISAT 21 Aug 11:36:23 11:39:51 23° 268° (W) 11:43:18 435.000
EO-88 21 Aug 11:38:24 11:42:05 67° 102° (ESE) 11:45:45 145.990 - 145.960
AAUSAT CUBESAT 2 21 Aug 11:38:38 11:41:14 16° 306° (NW) 11:43:50 437.432
ISS 21 Aug 11:44:55 11:47:04 16° 150° (SSE) 11:49:14 437.550
QB50P2 21 Aug 11:45:50 11:49:55 51° 67° (ENE) 11:54:01 145.880/145.840
EO-79 21 Aug 11:46:24 11:50:27 48° 67° (ENE) 11:54:30 145.935-145.965
M-CUBED/EXP-1 PRIME 21 Aug 11:48:59 11:53:34 64° 251° (WSW) 11:58:15 437.505
UWE-3 21 Aug 11:51:14 11:53:17 13° 309° (NW) 11:55:21 435.000/436.395/437.385
nSIGHT-1 21 Aug 11:52:26 11:54:46 18° 152° (SSE) 11:57:06 .
Oscar 11 21 Aug 11:58:14 12:01:40 23° 302° (WNW) 12:05:06 .
Gurwin Techsat 1B 21 Aug 12:01:52 12:04:47 15° 44° (NE) 12:07:41 435.225
Tancredo 1 21 Aug 12:03:07 12:05:42 29° 166° (SSE) 12:08:17 437.200
BUGSAT 1 21 Aug 12:14:44 12:18:10 27° 61° (ENE) 12:21:35 437.445
DUCHIFAT 1 21 Aug 12:15:42 12:19:51 72° 72° (ENE) 12:24:02 145.980
Max Valier Satellite 21 Aug 12:19:15 12:22:43 39° 293° (WNW) 12:26:12 145.860
RS-15 21 Aug 12:20:31 12:32:20 57° 119° (ESE) 12:44:08 29.354- 29.394
Oscar 19 21 Aug 12:22:28 12:26:32 24° 53° (NE) 12:30:38 437.125/150
HO-68 21 Aug 12:22:58 12:27:27 18° 327° (NNW) 12:31:57 435.675
BEESAT 3 21 Aug 12:23:22 12:27:10 38° 27° (NNE) 12:30:56 437.485
O/OREOS (USA 219) 21 Aug 12:29:38 12:33:39 31° 317° (NW) 12:37:43 437.305
AO-85 21 Aug 12:30:05 12:33:52 35° 25° (NNE) 12:37:51 145.980
ZACube-1 21 Aug 12:30:40 12:31:44 11° 312° (NW) 12:32:49 437.345
BEESAT 2 21 Aug 12:38:08 12:41:46 30° 20° (NNE) 12:45:24 435.950
DELFI C3 21 Aug 12:39:04 12:42:23 25° 299° (WNW) 12:45:40 145.870
AIST 2D 21 Aug 12:46:08 12:48:54 22° 267° (W) 12:51:44 435.315
NANOSAT C BR1 21 Aug 13:01:22 13:05:21 41° 262° (W) 13:09:20 145.865
ESTCUBE 1 21 Aug 13:02:30 13:07:01 55° 101° (E) 13:11:29 437.505/2401.250
AO-7 21 Aug 13:04:06 13:10:35 26° 33° (NNE) 13:17:03 .
LO-87 21 Aug 13:06:44 13:10:19 85° 285° (WNW) 13:13:51 145.935 - 145.965
POLYITAN 1 21 Aug 13:06:46 13:10:37 34° 263° (W) 13:14:29 437.675
VELOX 1 21 Aug 13:07:43 13:10:45 18° 88° (E) 13:13:47 145.980
SPROUT 21 Aug 13:11:15 13:14:37 22° 91° (E) 13:17:58 437.525
EO-88 21 Aug 13:12:53 13:15:22 17° 302° (WNW) 13:17:51 145.990 - 145.960
ISS 21 Aug 13:19:55 13:22:57 35° 169° (S) 13:26:00 437.550
QB50P2 21 Aug 13:22:31 13:25:58 24° 268° (W) 13:29:27 145.880/145.840
EO-79 21 Aug 13:22:54 13:26:26 26° 267° (W) 13:29:59 145.935-145.965
M-CUBED/EXP-1 PRIME 21 Aug 13:26:59 13:28:51 12° 271° (W) 13:30:43 437.505
nSIGHT-1 21 Aug 13:27:33 13:30:36 37° 172° (S) 13:33:38 .
Tancredo 1 21 Aug 13:37:49 13:40:31 34° 186° (S) 13:43:12 437.200
Gurwin Techsat 1B 21 Aug 13:38:32 13:43:43 54° 65° (ENE) 13:48:55 435.225
ITAMSAT 1 21 Aug 13:44:55 13:47:44 15° 44° (NE) 13:50:33 435.822/435.867
BUGSAT 1 21 Aug 13:49:27 13:53:22 46° 260° (W) 13:57:18 437.445
50 SAT 21 Aug 13:50:17 13:52:20 15° 90° (E) 13:54:22 437.505
DUCHIFAT 1 21 Aug 13:53:11 13:56:01 18° 271° (W) 13:58:52 145.980
Oscar 19 21 Aug 14:00:12 14:05:22 81° 253° (WSW) 14:10:36 437.125/150
BEESAT 3 21 Aug 14:00:58 14:04:57 57° 229° (SW) 14:08:51 437.485
AO-85 21 Aug 14:10:24 14:14:33 70° 226° (SW) 14:18:58 145.980
HO-68 21 Aug 14:11:55 14:12:31 10° 353° (N) 14:13:08 435.675
O/OREOS (USA 219) 21 Aug 14:12:26 14:14:31 13° 342° (NNW) 14:16:35 437.305
BEESAT 2 21 Aug 14:15:53 14:20:00 87° 46° (NE) 14:24:04 435.950
UKube-1 21 Aug 14:20:48 14:23:55 19° 90° (E) 14:27:01 .
YUBILEINY 21 Aug 14:24:54 14:28:20 13° 62° (ENE) 14:31:45 435.215
RS-15 21 Aug 14:32:18 14:44:43 74° 328° (NNW) 14:56:59 29.354- 29.394
ESTCUBE 1 21 Aug 14:39:44 14:43:35 27° 301° (WNW) 14:47:25 437.505/2401.250
LO-87 21 Aug 14:41:35 14:43:10 13° 306° (NW) 14:44:45 145.935 - 145.965
DX 1 21 Aug 14:43:04 14:47:12 40° 98° (E) 14:51:18 434.975-435.025
VELOX 1 21 Aug 14:43:18 14:47:46 77° 288° (WNW) 14:52:10 145.980
SPROUT 21 Aug 14:46:40 14:50:52 57° 291° (WNW) 14:55:01 437.525
AO-7 21 Aug 14:53:48 15:02:00 62° 58° (ENE) 15:10:12 .
ISS 21 Aug 14:56:00 14:59:05 37° 189° (S) 15:02:07 437.550
nSIGHT-1 21 Aug 15:03:36 15:06:37 35° 191° (S) 15:09:37 .
Tancredo 1 21 Aug 15:13:06 15:15:12 18° 205° (SSW) 15:17:18 437.200
Gurwin Techsat 1B 21 Aug 15:19:11 15:23:56 33° 266° (W) 15:28:44 435.225
ITAMSAT 1 21 Aug 15:21:09 15:26:13 55° 65° (ENE) 15:31:18 435.822/435.867
50 SAT 21 Aug 15:22:00 15:25:21 58° 289° (WNW) 15:28:40 437.505
ITUPSAT 1 21 Aug 15:38:15 15:41:16 16° 87° (E) 15:44:16 437.325
BEESAT 3 21 Aug 15:40:50 15:41:41 11° 249° (WSW) 15:42:31 437.485
Oscar 19 21 Aug 15:42:20 15:45:33 16° 275° (W) 15:48:47 437.125/150
AO-85 21 Aug 15:51:59 15:54:19 14° 245° (WSW) 15:56:45 145.980
BEESAT 2 21 Aug 15:54:22 15:57:16 19° 243° (WSW) 16:00:08 435.950
HO-68 21 Aug 15:54:32 15:57:18 13° 20° (NNE) 16:00:03 435.675
O/OREOS (USA 219) 21 Aug 15:54:57 15:56:01 11° 8° (N) 15:57:05 437.305
UKube-1 21 Aug 15:56:05 16:00:25 70° 290° (WNW) 16:04:42 .
CUTE-I 21 Aug 16:00:52 16:01:51 10° 37° (NE) 16:02:49 437.470
YUBILEINY 21 Aug 16:14:35 16:22:50 48° 87° (E) 16:31:02 435.215
DOVE 4 21 Aug 16:17:53 16:21:49 22° 55° (NE) 16:25:40 437.250
MOZHAYETS 4 21 Aug 16:18:08 16:22:13 30° 94° (E) 16:26:18
DX 1 21 Aug 16:19:24 16:23:21 34° 298° (WNW) 16:27:17 434.975-435.025
VELOX 1 21 Aug 16:20:50 16:23:32 16° 309° (NW) 16:26:14 145.980
SPROUT 21 Aug 16:24:19 16:25:55 12° 312° (NW) 16:27:32 437.525
ISS 21 Aug 16:32:41 16:35:00 18° 209° (SSW) 16:37:17 437.550
BEESAT 21 Aug 16:40:10 16:44:49 49° 100° (E) 16:49:26 436.000
nSIGHT-1 21 Aug 16:40:19 16:42:24 16° 211° (SSW) 16:44:27 .
CUBESAT XI-V 21 Aug 16:40:44 16:43:20 14° 84° (E) 16:45:54 437.345
RS-15 21 Aug 16:46:58 16:59:09 56° 359° (N) 17:10:57 29.354- 29.394
AO-7 21 Aug 16:47:09 16:55:07 46° 261° (W) 17:03:08 .
XW-2B 21 Aug 16:48:33 16:49:45 11° 51° (NE) 16:50:56 145.730 - 145.750
ITAMSAT 1 21 Aug 17:01:22 17:05:59 31° 266° (W) 17:10:36 435.822/435.867
XW-2C 21 Aug 17:06:22 17:08:39 16° 56° (NE) 17:10:58 145.795 - 145.815
ITUPSAT 1 21 Aug 17:14:59 17:19:48 88° 105° (ESE) 17:24:36 437.325
XW-2F 21 Aug 17:17:29 17:20:06 18° 58° (ENE) 17:22:44 145.980 - 146.000
UKube-1 21 Aug 17:33:22 17:35:44 15° 310° (NW) 17:38:04 .
O/OREOS (USA 219) 21 Aug 17:33:49 17:37:13 20° 33° (NNE) 17:40:38 437.305
CUTE-I 21 Aug 17:35:41 17:40:30 35° 59° (ENE) 17:45:19 437.470
HO-68 21 Aug 17:37:01 17:42:50 28° 45° (NE) 17:48:41 435.675
KAITUO 1B 21 Aug 17:40:50 17:43:50 23° 61° (ENE) 17:46:53 145.475/437.950
DOVE 4 21 Aug 17:53:43 17:59:00 87° 254° (WSW) 18:04:06 437.250
MOZHAYETS 4 21 Aug 17:55:09 17:59:35 48° 294° (WNW) 18:04:01
CUTE 1.7 + AOD 2 21 Aug 17:56:52 17:59:11 14° 52° (NE) 18:01:30 437.475
KKS-1 21 Aug 18:00:44 18:04:40 30° 95° (E) 18:08:33 437.445
LilacSat-2 21 Aug 18:05:16 18:08:56 50° 69° (ENE) 18:12:40 437.200
XW-2D 21 Aug 18:08:28 18:12:08 52° 69° (ENE) 18:15:50 145.860 - 145.880
YUBILEINY 21 Aug 18:10:56 18:19:34 57° 292° (WNW) 18:28:12 435.215
NUDT-PHONESAT 21 Aug 18:11:46 18:15:15 41° 67° (ENE) 18:18:46 437.300
CUBEBUG 2 21 Aug 18:16:38 18:18:29 13° 51° (NE) 18:20:19 437.445
CUBESAT XI-V 21 Aug 18:16:43 18:21:29 79° 103° (ESE) 18:26:13 437.345
BEESAT 21 Aug 18:18:13 18:22:28 33° 300° (WNW) 18:26:42 436.000
XW-2B 21 Aug 18:19:28 18:23:12 64° 71° (ENE) 18:26:59 145.730 - 145.750
STARS 21 Aug 18:37:02 18:40:54 29° 95° (E) 18:44:43 437.465
XW-2C 21 Aug 18:38:34 18:42:21 82° 256° (WSW) 18:46:11 145.795 - 145.815
SEEDS 21 Aug 18:41:55 18:45:10 22° 58° (ENE) 18:48:26 437.485
AO-7 21 Aug 18:47:43 18:50:20 12° 285° (WNW) 18:52:57 .
XW-2F 21 Aug 18:50:06 18:53:50 67° 257° (WSW) 18:57:37 145.980 - 146.000
ITUPSAT 1 21 Aug 18:53:37 18:57:06 20° 308° (NW) 19:00:34 437.325
RS-15 21 Aug 19:01:14 19:13:36 73° 31° (NNE) 19:25:23 29.354- 29.394
XW-2A 21 Aug 19:01:32 19:04:06 21° 61° (ENE) 19:06:40 145.665 - 145.685
AO-73 21 Aug 19:06:21 19:08:05 12° 50° (NE) 19:09:51 145.935
O/OREOS (USA 219) 21 Aug 19:12:52 19:17:26 73° 57° (ENE) 19:21:59 437.305
KAITUO 1B 21 Aug 19:14:03 19:17:38 46° 261° (W) 19:21:18 145.475/437.950
CUTE-I 21 Aug 19:15:10 19:20:25 53° 259° (W) 19:25:40 437.470
HO-68 21 Aug 19:22:36 19:29:46 83° 68° (ENE) 19:36:59 435.675
AAUSAT CUBESAT 2 21 Aug 19:24:32 19:28:01 26° 60° (ENE) 19:31:31 437.432
CUTE 1.7 + AOD 2 21 Aug 19:30:05 19:34:19 73° 71° (ENE) 19:38:36 437.475
DOVE 4 21 Aug 19:33:50 19:37:21 18° 274° (W) 19:40:49 437.250
MOZHAYETS 4 21 Aug 19:34:16 19:35:45 11° 315° (NW) 19:37:14
KKS-1 21 Aug 19:37:08 19:41:24 46° 295° (WNW) 19:45:37 437.445
LilacSat-2 21 Aug 19:40:33 19:43:29 21° 269° (W) 19:46:28 437.200
UWE-3 21 Aug 19:41:27 19:45:16 36° 65° (ENE) 19:49:05 435.000/436.395/437.385
XW-2D 21 Aug 19:43:45 19:46:36 20° 269° (W) 19:49:30 145.860 - 145.880
NUDT-PHONESAT 21 Aug 19:46:17 19:49:18 24° 267° (W) 19:52:21 437.300
Oscar 11 21 Aug 19:48:33 19:51:50 22° 57° (ENE) 19:55:09 .
CUBEBUG 2 21 Aug 19:50:12 19:54:23 65° 71° (ENE) 19:58:31 437.445
CUBESAT XI-V 21 Aug 19:54:49 19:58:23 22° 305° (NW) 20:01:57 437.345
XW-2B 21 Aug 19:55:18 19:57:48 17° 271° (W) 20:00:19 145.730 - 145.750
YUBILEINY 21 Aug 20:12:30 20:18:44 21° 320° (NW) 20:24:58 435.215
STARS 21 Aug 20:13:14 20:17:25 45° 295° (WNW) 20:21:34 437.465
XW-2C 21 Aug 20:16:04 20:17:12 11° 275° (W) 20:18:22 145.795 - 145.815
SEEDS 21 Aug 20:16:17 20:20:29 65° 258° (WSW) 20:24:45 437.485
ZACube-1 21 Aug 20:18:59 20:22:57 46° 67° (ENE) 20:26:57 437.345
DELFI C3 21 Aug 20:23:43 20:25:48 14° 53° (NE) 20:27:53 145.870
XW-2A 21 Aug 20:33:26 20:36:37 42° 260° (W) 20:39:51 145.665 - 145.685
AO-73 21 Aug 20:39:29 20:43:34 64° 70° (ENE) 20:47:42 145.935
STRAND 1 21 Aug 20:47:56 20:52:51 45° 99° (E) 20:57:44 437.568
EO-88 21 Aug 20:51:27 20:53:22 14° 55° (NE) 20:55:18 145.990 - 145.960
O/OREOS (USA 219) 21 Aug 20:52:59 20:56:22 21° 256° (WSW) 20:59:46 437.305
AAUSAT CUBESAT 2 21 Aug 20:59:11 21:03:15 51° 260° (W) 21:07:22 437.432
CUTE-I 21 Aug 21:00:33 21:01:43 11° 280° (W) 21:02:53 437.470
CUTE 1.7 + AOD 2 21 Aug 21:07:44 21:10:39 18° 272° (W) 21:13:37 437.475
HO-68 21 Aug 21:12:18 21:18:20 28° 270° (W) 21:24:22 435.675
RS-15 21 Aug 21:14:16 21:25:58 58° 240° (WSW) 21:37:07 29.354- 29.394
KKS-1 21 Aug 21:15:54 21:16:58 11° 316° (NW) 21:18:02 437.445
UWE-3 21 Aug 21:17:59 21:21:47 33° 264° (W) 21:25:35 435.000/436.395/437.385
Oscar 11 21 Aug 21:23:17 21:27:36 68° 258° (WSW) 21:31:56 .
CUBEBUG 2 21 Aug 21:28:24 21:31:26 19° 270° (W) 21:34:28 437.445
Max Valier Satellite 21 Aug 21:31:19 21:34:39 34° 66° (ENE) 21:38:00 145.860
STARS 21 Aug 21:52:03 21:52:46 10° 316° (NW) 21:53:28 437.465
DELFI C3 21 Aug 21:55:54 21:59:55 76° 72° (ENE) 22:03:57 145.870
ZACube-1 21 Aug 21:55:59 21:59:28 26° 267° (W) 22:02:58 437.345
SEEDS 21 Aug 21:56:24 21:57:03 10° 278° (W) 21:57:42 437.485
AO-73 21 Aug 22:17:16 22:20:14 19° 271° (W) 22:23:15 145.935
LO-87 21 Aug 22:17:38 22:20:00 17° 58° (ENE) 22:22:24 145.935 - 145.965
YUBILEINY 21 Aug 22:18:31 22:20:17 11° 353° (N) 22:22:03 435.215
EO-88 21 Aug 22:22:51 22:26:30 90° 255° (WSW) 22:30:12 145.990 - 145.960
STRAND 1 21 Aug 22:27:19 22:32:01 38° 299° (WNW) 22:36:41 437.568
FO-29 21 Aug 22:29:26 22:34:47 37° 94° (E) 22:39:43 435.910
PRISM 21 Aug 22:32:38 22:34:33 13° 86° (E) 22:36:27 437.425
ESTCUBE 1 21 Aug 22:33:38 22:37:11 23° 56° (ENE) 22:40:45 437.505/2401.250
UNISAT 6 21 Aug 22:44:17 22:47:47 24° 92° (E) 22:51:19 437.425
Oscar 11 21 Aug 23:03:20 23:04:36 11° 277° (W) 23:05:51 .
SO-50 21 Aug 23:04:52 23:06:32 12° 111° (ESE) 23:08:13 436.795
Max Valier Satellite 21 Aug 23:05:21 23:08:33 28° 265° (W) 23:11:46 145.860
TIGRISAT 21 Aug 23:18:46 23:22:52 42° 98° (E) 23:27:00 435.000
RS-15 21 Aug 23:28:22 23:35:31 19° 267° (W) 23:42:31 29.354- 29.394
PCSat 21 Aug 23:30:55 23:35:51 37° 118° (ESE) 23:40:50 145.827
DELFI C3 21 Aug 23:32:43 23:35:12 16° 272° (W) 23:37:41 145.870
LO-87 21 Aug 23:49:30 23:53:04 65° 257° (WSW) 23:56:39 145.935 - 145.965
EO-88 21 Aug 23:59:28 00:00:46 12° 274° (W) 00:02:04 145.990 - 145.960
AIST 2D 22 Aug 00:03:13 00:05:49 19° 91° (E) 00:08:26 435.315
PRISM 22 Aug 00:06:21 00:10:32 83° 106° (ESE) 00:14:39 437.425
STRAND 1 22 Aug 00:08:50 00:09:55 11° 321° (NW) 00:11:01 437.568
ESTCUBE 1 22 Aug 00:09:06 00:13:36 69° 257° (WSW) 00:18:10 437.505/2401.250
SPROUT 22 Aug 00:11:14 00:15:16 43° 66° (ENE) 00:19:19 437.525
DX 1 22 Aug 00:11:15 00:14:10 18° 53° (NE) 00:17:07 434.975-435.025
VELOX 1 22 Aug 00:11:28 00:15:37 39° 64° (ENE) 00:19:47 145.980
FO-29 22 Aug 00:14:31 00:20:08 47° 298° (WNW) 00:25:14 435.910
YUBILEINY 22 Aug 00:17:45 00:22:23 15° 28° (NNE) 00:26:59 435.215
UNISAT 6 22 Aug 00:20:36 00:24:49 55° 292° (WNW) 00:29:04 437.425
50 SAT 22 Aug 00:27:58 00:30:33 20° 60° (ENE) 00:33:09 437.505
NANOSAT C BR1 22 Aug 00:38:14 00:41:19 19° 90° (E) 00:44:23 145.865
SO-50 22 Aug 00:41:41 00:46:06 57° 131° (SE) 00:50:33 436.795
POLYITAN 1 22 Aug 00:43:45 00:47:10 23° 92° (E) 00:50:34 437.675
M-CUBED/EXP-1 PRIME 22 Aug 00:55:05 00:59:05 31° 100° (E) 01:02:50 437.505
TIGRISAT 22 Aug 00:55:42 00:59:29 31° 298° (WNW) 01:03:18 435.000
QB50P2 22 Aug 00:58:43 01:02:34 33° 96° (E) 01:06:25 145.880/145.840
EO-79 22 Aug 00:59:03 01:02:50 31° 95° (E) 01:06:36 145.935-145.965
